[[{"header":{"parameterUnit":"m.s-1","parameterCategory":1,"la1":30.2992,"la2":30.254,"lo1":-89.0895,"lo2":-89.0443,"dy":0.0025,"dx":0.0025,"nx":19,"ny":19,"refTime":"2026-04-06T21:00:00:Z","depth":0,"parameterNumber":2,"parameterNumberName":"U-component_of_WINDS"},"data":[0,0,0,-7.3921,-7.3927,-7.4166,-7.4166,-7.4536,-7.454,0,0,0,0,0,0,0,0,0,0,0,-7.3891,-7.3895,-7.3921,-7.3928,-7.4166,-7.4166,-7.4535,-7.454,0,0,0,0,0,0,0,0,0,0,0,-7.3889,-7.3894,-7.3899,-7.3929,-7.4166,-7.4166,-7.4534,-7.4331,0,0,0,0,0,0,0,0,0,0,-7.4089,-7.41,-7.3893,-7.3899,-7.3931,-7.4165,-7.4166,-7.4321,-7.4344,-7.4456,0,-7.4567,0,-7.456,-7.4569,-7.4571,0,0,0,-7.3898,-7.4081,-7.4109,-7.3899,-7.3933,-7.4165,-7.405,-7.4333,-7.436,-7.4488,-7.4572,-7.4584,-7.4566,-7.4572,-7.4574,-7.532,-7.5325,0,0,-7.3885,-7.3955,-7.4091,-7.4128,-7.4096,-7.4042,-7.4058,-7.4348,-7.4444,-7.4573,-7.4591,-7.4572,-7.4575,-7.4578,-7.5316,-7.5322,0,0,0,-7.3867,-7.3948,-7.3966,-7.4115,-7.4153,-7.405,-7.4068,-7.4431,-7.4431,-7.4595,-7.4577,-7.4577,-7.4583,-7.531,-7.5318,-7.5628,0,0,0,-7.3858,-7.3937,-7.3962,-7.4008,-7.4149,-7.4295,-7.4146,-7.4411,-7.4442,-7.4575,-7.4577,-7.4587,-7.5305,-7.5314,-7.5608,-7.5763,0,0,0,-7.3862,-7.3937,-7.3985,-7.4012,-7.4116,-7.4289,-7.4305,-7.4416,-7.4433,-7.4571,-7.4588,-7.5301,-7.5313,-7.559,-7.5733,-7.598,0,0,0,-7.3886,-7.4259,-7.3991,-7.44,-7.4115,-7.4479,-7.4302,-7.457,-7.4725,-7.4579,-7.5306,-7.5317,-7.5584,-7.5715,-7.5961,-7.62,-7.6307,0,0,-7.4395,-7.4323,-7.4557,-7.4325,-7.4754,-7.4437,-7.4912,-7.4987,-7.4936,-7.5195,-7.5212,-7.5615,-7.5731,-7.5976,-7.6877,-7.6963,0,0,0,-7.4742,-7.4912,-7.501,-7.5162,-7.5228,-7.5297,-7.5292,-7.532,-7.5536,-7.5084,-7.5768,-7.5835,-7.5976,-7.6087,-7.6159,-7.6275,-7.5372,-7.537,-7.5369,-7.5566,-7.5479,-7.5861,-7.5803,-7.5952,-7.5942,-7.6055,-7.609,-7.596,-7.6123,-7.62,-7.6757,-7.689,-7.6943,-7.7065,-7.6318,-7.632,-7.6321,-7.6322,-7.6304,-7.653,-7.6346,-7.6651,-7.6557,-7.6811,-7.6816,-7.6715,-7.6938,-7.6692,-7.6812,-7.6551,-7.704,-7.7141,-7.6344,-7.634,-7.6337,-7.6335,-7.6333,-7.6833,-7.6926,-7.6953,-7.7161,-7.7331,-7.7259,-7.7481,-7.7387,-7.7301,-7.7419,-7.7489,-7.7484,-7.7466,-7.7459,-7.7461,-7.7463,-7.7464,-7.7466,-7.7467,-7.7372,-7.7392,-7.7591,-7.7692,-7.7775,-7.7874,-7.7867,-7.7946,-7.8011,-7.7925,-7.7925,-7.7779,-7.7103,-7.6936,-7.7497,-7.7491,-7.7488,-7.7485,-7.7483,-7.8153,-7.796,-7.8269,-7.8353,-7.8462,-7.8637,-7.8513,-7.8684,-7.8736,-7.8849,-7.8676,-7.8192,-7.8111,-7.8053,-7.7913,-7.8693,-7.8693,-7.8694,-7.8694,-7.8599,-7.8548,-7.8841,-7.8981,-7.9108,-7.9027,-7.9377,-7.9375,-7.9343,-7.9369,-7.9242,-7.9049,-7.8994,-7.8945,-7.8868,-7.8736,-7.9709,-7.971,-7.971,-7.9074,-7.9031,-7.9347,-7.9312,-7.939,-7.9459,-7.9785,-7.9953,-7.9876,-7.975,-7.9388,-7.9345,-7.9032,-7.8935,-7.8801,-7.8683,-7.8439,0,0]},{"header":{"parameterUnit":"m.s-1","parameterCategory":1,"la1":30.2992,"la2":30.254,"lo1":-89.0895,"lo2":-89.0443,"dy":0.0025,"dx":0.0025,"nx":19,"ny":19,"refTime":"2026-04-06T21:00:00:Z","depth":0,"parameterNumber":3,"parameterNumberName":"V-component_of_WINDS"},"data":[0,0,0,-0.6295,-0.6295,-0.6284,-0.6284,-0.6263,-0.6263,0,0,0,0,0,0,0,0,0,0,0,-0.6295,-0.6295,-0.6295,-0.6295,-0.6284,-0.6284,-0.6263,-0.6263,0,0,0,0,0,0,0,0,0,0,0,-0.6295,-0.6295,-0.6295,-0.6295,-0.6284,-0.6284,-0.6264,-0.6274,0,0,0,0,0,0,0,0,0,0,-0.6286,-0.6283,-0.6295,-0.6295,-0.6295,-0.6284,-0.6284,-0.6275,-0.6273,-0.6266,0,-0.6259,0,-0.6261,-0.6261,-0.6261,0,0,0,-0.6297,-0.6284,-0.6284,-0.6295,-0.6294,-0.6284,-0.6289,-0.6274,-0.6272,-0.6264,-0.6259,-0.6258,-0.626,-0.6261,-0.6261,-0.621,-0.6209,0,0,-0.6298,-0.6291,-0.6285,-0.6282,-0.6284,-0.629,-0.6289,-0.6273,-0.6267,-0.6258,-0.6258,-0.626,-0.6261,-0.6261,-0.621,-0.6209,0,0,0,-0.6298,-0.6292,-0.6292,-0.6283,-0.6282,-0.6289,-0.6289,-0.6267,-0.6268,-0.6257,-0.626,-0.6261,-0.6261,-0.621,-0.621,-0.6185,0,0,0,-0.6298,-0.6292,-0.6292,-0.6288,-0.6282,-0.6275,-0.6283,-0.6269,-0.6267,-0.626,-0.6261,-0.626,-0.6211,-0.621,-0.6187,-0.6174,0,0,0,-0.6297,-0.6292,-0.6289,-0.6288,-0.6283,-0.6275,-0.6275,-0.6269,-0.6269,-0.6261,-0.626,-0.6211,-0.621,-0.6188,-0.6177,-0.6158,0,0,0,-0.6294,-0.6268,-0.6288,-0.6261,-0.6283,-0.626,-0.6275,-0.6258,-0.6249,-0.6261,-0.6211,-0.621,-0.6188,-0.6178,-0.6159,-0.614,-0.6131,0,0,-0.6258,-0.6264,-0.6248,-0.6266,-0.6237,-0.6262,-0.623,-0.6228,-0.6233,-0.6217,-0.6216,-0.6186,-0.6177,-0.6158,-0.6089,-0.6082,0,0,0,-0.6235,-0.6223,-0.6217,-0.6208,-0.6205,-0.6201,-0.6205,-0.6204,-0.619,-0.6224,-0.6175,-0.617,-0.6159,-0.615,-0.6144,-0.6134,-0.6206,-0.6206,-0.6206,-0.6175,-0.6183,-0.6157,-0.6162,-0.6153,-0.6156,-0.6148,-0.6147,-0.6158,-0.6146,-0.6141,-0.6098,-0.6088,-0.6084,-0.6073,-0.6133,-0.6133,-0.6133,-0.6132,-0.6123,-0.6107,-0.6121,-0.6101,-0.6108,-0.6091,-0.6092,-0.61,-0.6084,-0.6103,-0.6094,-0.6114,-0.6076,-0.6067,-0.6131,-0.6131,-0.6131,-0.6131,-0.6132,-0.6084,-0.6078,-0.6076,-0.6062,-0.605,-0.6057,-0.604,-0.6048,-0.6056,-0.6047,-0.6041,-0.6041,-0.6042,-0.6044,-0.6043,-0.6043,-0.6043,-0.6043,-0.6043,-0.6044,-0.6043,-0.6029,-0.6022,-0.6016,-0.6009,-0.601,-0.6005,-0.6,-0.6007,-0.6007,-0.6018,-0.6071,-0.6084,-0.6041,-0.6041,-0.6041,-0.6042,-0.6042,-0.5986,-0.6,-0.5978,-0.5971,-0.5963,-0.595,-0.596,-0.5947,-0.5943,-0.5934,-0.5947,-0.5986,-0.5992,-0.5997,-0.6007,-0.5946,-0.5946,-0.5946,-0.5946,-0.5953,-0.5957,-0.5934,-0.5923,-0.5913,-0.5919,-0.5892,-0.5892,-0.5894,-0.5892,-0.5902,-0.5917,-0.5921,-0.5925,-0.5931,-0.5941,-0.5865,-0.5865,-0.5864,-0.5917,-0.592,-0.5895,-0.5897,-0.5891,-0.5886,-0.5859,-0.5845,-0.5851,-0.5861,-0.589,-0.5893,-0.5917,-0.5925,-0.5935,-0.5945,-0.5963,0,0]}]]